Regional Weather Roundup
Issued by NWS

Home | Current Version | Previous Version | Text Only | Print | Product List | Glossary On
Versions: 1 2 3 4 5 6 7 8 9 10 11 12 13 14 15 16 17 18 19 20 21 22 23 24 25 26 27 28 29 30 31 32 33 34 35 36 37 38 39 40 41 42 43 44 45 46 47 48 49 50
000
ASUS43 KDMX 281108
RWRIA

WEATHER ROUNDUP FOR IOWA
NATIONAL WEATHER SERVICE DES MOINES IA
600 AM CDT WED SEP 28 2016

NOTE: "FAIR" INDICATES FEW OR NO CLOUDS BELOW 12,000 FEET WITH NO
SIGNIFICANT WEATHER AND/OR OBSTRUCTIONS TO VISIBILITY.

* - THESE STATIONS ARE NOT NWS STATIONS...THUS NOT UNDER NWS
QUALITY CONTROL.  THEY ALSO DO NOT REPORT WEATHER SUCH
AS PRECIPITATION OR FOG.

IAZ001>003-012>014-020>022-031>034-043>046-281200-
   NORTHWEST IOWA

CITY           SKY/WX    TMP DP  RH WIND       PRES   REMARKS
CARROLL *      PTCLDY    46  45  93 N7        30.01R
CHEROKEE *     CLEAR     46  44  92 N9        30.04R
DENISON *      PTCLDY    46  43  87 N6        30.01R
LE MARS *      PTCLDY    45  41  87 N6        30.07R
ORANGE CITY *  CLEAR     46  43  87 N8        30.06R
SHELDON *      CLEAR     43  43 100 N6        30.05R
SIOUX CITY     CLEAR     46  41  82 N7        30.07R
SPENCER        CLOUDY    47  44  90 N10       30.05R
STORM LAKE *   CLEAR     45  43  93 N8        30.03R
$$

IAZ055>058-069>071-079>083-090>094-281200-
   SOUTHWEST IOWA

CITY           SKY/WX    TMP DP  RH WIND       PRES   REMARKS
ATLANTIC *     CLEAR     46  43  87 N6        30.00R
AUDUBON *      CLEAR     46  43  87 N9        30.01R
CLARINDA *       N/A     48  45  87 MISG      29.99R
COUNCIL BLFS * CLEAR     48  43  81 N6        30.02R
CRESTON *      CLEAR     48  43  81 N10G16    29.98R
HARLAN  *      CLEAR     46  43  87 N7        30.05R
LAMONI         CLEAR     51  43  74 N10       29.94R
RED OAK *      CLEAR     46  45  93 N10       30.00R
SHENANDOAH *   PTCLDY    48  45  87 N7        30.00R
$$

IAZ047>049-059>061-072>074-084-281200-
   CENTRAL IOWA

CITY           SKY/WX    TMP DP  RH WIND       PRES   REMARKS
AMES           CLOUDY    51  45  79 N20       29.98R
ANKENY *         N/A    N/A N/A N/A MISG        N/A
BOONE *        CLOUDY    50  45  81 N13       29.97R
CHARITON *       N/A     48  45  87 N7        29.94R
DES MOINES     MOCLDY    52  43  71 N12       29.97R
GRINNELL*      CLOUDY    50  43  75 N12G18    29.95R
KNOXVILLE *    PTCLDY    50  43  76 N10G21    29.93R
MARSHALLTOWN   CLOUDY    51  45  79 N9        29.95R
NEWTON *       CLOUDY    50  43  76 N10       29.95R
PELLA *        CLOUDY    50  44  78 N7        29.95R
PERRY *          N/A     47  45  92 NW6       29.99R
$$

IAZ004>006-015-016-023>025-035-036-281200-
   NORTH CENTRAL IOWA

CITY           SKY/WX    TMP DP  RH WIND       PRES   REMARKS
ALGONA *       CLOUDY    48  45  87 N13G20    30.03R
CLARION *      CLOUDY    50  45  81 N14       30.00R
ESTHERVILLE    CLOUDY    47  44  90 N12       30.04R
FORT DODGE *   CLOUDY    48  39  71 N9G16     30.01R
MASON CITY     CLOUDY    50  44  80 N12       30.00R
FOREST CITY *  CLOUDY    48  43  81 N12G17    30.01R
WEBSTER CITY * CLOUDY    50  45  81 N15       29.97R
IOWA FALLS *   CLOUDY    51  44  76 N10       29.98R
$$

IAZ007>011-017>019-026>030-037>042-050>054-066-281200-
   NORTHEAST IOWA

CITY           SKY/WX    TMP DP  RH WIND       PRES   REMARKS
CEDAR RAPIDS   CLOUDY    50  45  83 N13       29.91R
CHARLES CITY * CLOUDY    50  46  87 NW7       29.97R
CLINTON *      CLOUDY    50  45  83 N9        29.88R
DECORAH *      CLOUDY    48  48 100 NW9       29.92R
DUBUQUE        CLOUDY    49  45  86 N12       29.89R
MONTICELLO *   CLOUDY    50  45  81 N10G16    29.90R
OELWEIN *      CLOUDY    50  46  87 N8        29.94R
WATERLOO       CLOUDY    51  44  77 N15G23    29.94R
$$

IAZ064-065-067-068-078-281200-
   EAST CENTRAL IOWA

CITY           SKY/WX    TMP DP  RH WIND       PRES   REMARKS
DAVENPORT      PTCLDY    48  44  86 N10       29.89R
IOWA CITY      CLOUDY    52  43  71 N9        29.92R
MT. PLEASANT * CLEAR     53  45  76 NW14      29.90R
MUSCATINE *    CLEAR     50  43  76 N9        29.89R
QUAD CITIES    CLOUDY    51  44  77 NW12      29.87R
$$

IAZ062-063-075>077-085>089-095>099-281200-
   SOUTHEAST IOWA

CITY           SKY/WX    TMP DP  RH WIND       PRES   REMARKS
BURLINGTON     PTCLDY    53  46  77 N14       29.86R
FAIRFIELD *    PTCLDY    50  41  71 N13       29.90R
FORT MADISON * CLOUDY    54  45  71 N7        29.88R
KEOKUK *       CLOUDY    55  43  62 N7G15     29.86R
OSKALOOSA *      N/A     49  43  80 N10G16    29.93R
OTTUMWA        CLEAR    N/A N/A N/A N12       29.92R
WASHINGTON *     N/A    N/A N/A N/A MISG        N/A
$$

ABBREVIATIONS USED IN REMARKS
   TC - TEMPERATURES IN CELSIUS
  WCI - WIND CHILL INDEX
   HX - HEAT INDEX
  VSB - VISIBILITY
$$





USA.gov is the U.S. government's official web portal to all federal, state and local government web resources and services.